[ ตารางข้อมูล ] [ Min-Max ] [ วันนี้4 ] [ วันนี้2 ] [ เทียบ3วัน A ] [ เทียบ4วัน B ]   

วันนี้2   [ ◀ ช่วงเก่ากว่า ] [ ช่วงที่ 213 ] [ ช่วงใหม่กว่า ▶ ] [ ล่าสุด ]    [ 3 ชั่วโมง ] [ 6 ชั่วโมง ] [ 12 ชั่วโมง ] [ 24 ชั่วโมง ]   วันนี้2

อุณภูมิตู้ Knockdown4529  ราย 3 ชั่วโมง  ที่วัดได้ ในช่วงวันเวลา 08/04/2026 (22:12) ถึง 09/04/2026 (01:12) 
ความชื้นในตู้ Knockdown4529  ราย 3 ชั่วโมง  ที่วัดได้ ในช่วงวันเวลา 08/04/2026 (22:12) ถึง 09/04/2026 (01:12) 

 
DS18B20SHTC3 
IDDate d/m/Y & Timedata1
สูง
data2
ต่ำ
data3
นอก
temp
pcb
hum
pcb
Time
 10101  09/04/2026 01:11:23  29.8  29.9  27.7  29.8  69.6  01:11 
 10100  09/04/2026 01:06:39  29.8  29.9  27.6  29.9  69.6  01:06 
 10099  09/04/2026 01:01:57  29.9  29.9  27.5  29.9  69.5  01:01 
 10098  09/04/2026 00:57:15  29.9  30.0  27.3  29.8  69.7  00:57 
 10097  09/04/2026 00:52:33  29.9  30.0  27.4  29.9  69.6  00:52 
 10096  09/04/2026 00:47:51  29.9  30.1  27.3  30.1  69.7  00:47 
 10095  09/04/2026 00:43:09  29.9  30.1  27.2  30.0  69.5  00:43 
 10094  09/04/2026 00:38:27  29.9  30.1  27.7  29.9  69.6  00:38 
 10093  09/04/2026 00:33:45  30.0  30.1  27.5  30.1  69.5  00:33 
 10092  09/04/2026 00:29:03  30.1  30.1  27.4  30.1  69.5  00:29 
 10091  09/04/2026 00:24:21  30.1  30.2  27.4  30.1  69.4  00:24 
 10090  09/04/2026 00:19:39  30.1  30.2  27.5  30.0  69.5  00:19 
 10089  09/04/2026 00:14:57  30.1  30.2  27.7  30.1  69.5  00:14 
 10088  09/04/2026 00:10:15  30.1  30.2  27.9  30.1  69.4  00:10 
 10087  09/04/2026 00:05:33  30.1  30.2  27.8  30.1  69.4  00:05 
 10086  09/04/2026 00:00:51  30.1  30.2  28.0  30.2  69.5  00:00 
 10085  08/04/2026 23:56:09  30.2  30.3  28.0  30.3  69.4  23:56 
 10084  08/04/2026 23:51:27  30.2  30.3  28.3  30.3  69.4  23:51 
 10083  08/04/2026 23:46:44  30.2  30.4  28.3  30.2  69.4  23:46 
 10082  08/04/2026 23:42:02  30.2  30.4  28.4  30.2  69.3  23:42 
 10081  08/04/2026 23:37:21  30.2  30.4  28.5  30.4  69.5  23:37 
 10080  08/04/2026 23:32:38  30.3  30.4  28.7  30.2  69.3  23:32 
 10079  08/04/2026 23:27:56  30.3  30.4  28.9  30.2  69.3  23:27 
 10078  08/04/2026 23:23:15  30.4  30.5  28.9  30.3  69.3  23:23 

Data every 5 minute.


ใช้เวลาประมวลผล 0.00176 วินาที